ARG1019 SAVE-SAZS

Flight info

Callsign ARG1019
Flight time 0h 39m
Altitude 20000
Route TORES
Aircraft AT46/M-SDFGIRY/S

Departure

Time 2026-05-06 18:41
Airport Esquel Brigadier Antonio Parodi International Airport (SAVE)

Arrival

Time 2026-05-06 19:20
Airport Teniente Luis Candelaria International Airport (SAZS)
Time Latitude Longitude Altitude Speed Heading
2026-05-06 18:34 -42.90869 -71.14574 2624 ft 7 kts 238°
2026-05-06 18:34 -42.90897 -71.14636 2625 ft 4 kts 252°
2026-05-06 18:34 -42.90887 -71.14648 2625 ft 10 kts 334°
2026-05-06 18:34 -42.90817 -71.14611 2622 ft 13 kts 30°
2026-05-06 18:35 -42.90770 -71.14576 2620 ft 4 kts 29°
2026-05-06 18:35 -42.90752 -71.14563 2620 ft 0 kts 29°
2026-05-06 18:35 -42.90751 -71.14562 2620 ft 0 kts 29°
2026-05-06 18:36 -42.90740 -71.14528 2619 ft 8 kts 83°
2026-05-06 18:36 -42.90736 -71.14426 2618 ft 12 kts 87°
2026-05-06 18:37 -42.90723 -71.14301 2616 ft 14 kts 73°
2026-05-06 18:37 -42.90647 -71.14110 2611 ft 29 kts 57°
2026-05-06 18:37 -42.90547 -71.13901 2607 ft 24 kts 56°
2026-05-06 18:37 -42.90460 -71.13726 2603 ft 21 kts 59°
2026-05-06 18:38 -42.90389 -71.13568 2601 ft 19 kts 56°
2026-05-06 18:38 -42.90280 -71.13342 2596 ft 32 kts 57°
2026-05-06 18:38 -42.90164 -71.13105 2585 ft 28 kts 56°
2026-05-06 18:38 -42.90067 -71.12902 2582 ft 24 kts 58°
2026-05-06 18:39 -42.89984 -71.12726 2579 ft 21 kts 56°
2026-05-06 18:39 -42.89893 -71.12536 2569 ft 19 kts 59°
2026-05-06 18:39 -42.89848 -71.12425 2571 ft 12 kts 59°
2026-05-06 18:40 -42.89822 -71.12371 2571 ft 12 kts 221°
2026-05-06 18:40 -42.89838 -71.12404 2573 ft 0 kts 238°
2026-05-06 18:40 -42.89916 -71.12571 2570 ft 55 kts 236°
2026-05-06 18:41 -42.90254 -71.13282 2638 ft 117 kts 237°
2026-05-06 18:41 -42.90508 -71.14125 3530 ft 85 kts 271°
2026-05-06 18:41 -42.90561 -71.14964 3964 ft 99 kts 252°
2026-05-06 18:41 -42.90819 -71.15958 4297 ft 134 kts 253°
2026-05-06 18:42 -42.90850 -71.17221 4957 ft 138 kts 296°
2026-05-06 18:42 -42.90008 -71.18048 5197 ft 177 kts 348°
2026-05-06 18:42 -42.88714 -71.17802 5429 ft 198 kts 16°
2026-05-06 18:42 -42.87356 -71.17165 5717 ft 215 kts 20°
2026-05-06 18:43 -42.85900 -71.16419 6031 ft 231 kts 20°
2026-05-06 18:43 -42.84355 -71.15636 6336 ft 242 kts 20°
2026-05-06 18:43 -42.82750 -71.14830 6621 ft 249 kts 20°
2026-05-06 18:43 -42.81110 -71.14008 6939 ft 253 kts 20°
2026-05-06 18:44 -42.79429 -71.13349 7226 ft 251 kts
2026-05-06 18:44 -42.77738 -71.13839 7533 ft 249 kts 339°
2026-05-06 18:44 -42.76093 -71.14632 7833 ft 252 kts 342°
2026-05-06 18:44 -42.74400 -71.15296 8132 ft 255 kts 346°
2026-05-06 18:45 -42.72652 -71.15748 8443 ft 257 kts 352°
2026-05-06 18:45 -42.70865 -71.15927 8745 ft 259 kts 358°
2026-05-06 18:45 -42.69056 -71.15919 9040 ft 261 kts
2026-05-06 18:45 -42.67239 -71.15861 9342 ft 262 kts
2026-05-06 18:46 -42.65410 -71.15804 9640 ft 262 kts
2026-05-06 18:46 -42.63606 -71.15780 9941 ft 263 kts 360°
2026-05-06 18:46 -42.61776 -71.15783 10237 ft 263 kts 359°
2026-05-06 18:46 -42.59939 -71.15795 10538 ft 264 kts 359°
2026-05-06 18:47 -42.58105 -71.15798 10834 ft 264 kts 359°
2026-05-06 18:47 -42.56266 -71.15800 11137 ft 264 kts 359°
2026-05-06 18:47 -42.54426 -71.15809 11440 ft 264 kts 359°
2026-05-06 18:47 -42.52585 -71.15811 11744 ft 265 kts 359°
2026-05-06 18:48 -42.50744 -71.15823 12040 ft 265 kts 359°
2026-05-06 18:48 -42.48906 -71.15828 12342 ft 265 kts 359°
2026-05-06 18:48 -42.47056 -71.15832 12641 ft 265 kts 359°
2026-05-06 18:48 -42.45209 -71.15837 12943 ft 266 kts 359°
2026-05-06 18:49 -42.43360 -71.15841 13241 ft 266 kts 359°
2026-05-06 18:49 -42.41514 -71.15848 13544 ft 265 kts 359°
2026-05-06 18:49 -42.39666 -71.15854 13844 ft 265 kts 359°
2026-05-06 18:49 -42.37823 -71.15859 14140 ft 265 kts 359°
2026-05-06 18:50 -42.35980 -71.15865 14443 ft 264 kts 359°
2026-05-06 18:50 -42.34142 -71.15872 14744 ft 264 kts 359°
2026-05-06 18:50 -42.32307 -71.15879 15050 ft 264 kts 359°
2026-05-06 18:50 -42.30473 -71.15884 15346 ft 263 kts 359°
2026-05-06 18:51 -42.28638 -71.15890 15647 ft 263 kts 359°
2026-05-06 18:51 -42.26837 -71.15896 16104 ft 256 kts 359°
2026-05-06 18:51 -42.25078 -71.15901 16579 ft 250 kts 359°
2026-05-06 18:51 -42.23358 -71.15906 17053 ft 245 kts 359°
2026-05-06 18:52 -42.21669 -71.15912 17528 ft 240 kts 359°
2026-05-06 18:52 -42.20007 -71.15917 18001 ft 237 kts 359°
2026-05-06 18:52 -42.18375 -71.15923 18483 ft 233 kts 359°
2026-05-06 18:52 -42.16766 -71.15929 18954 ft 229 kts 359°
2026-05-06 18:53 -42.15181 -71.15933 19432 ft 226 kts 359°
2026-05-06 18:53 -42.13621 -71.15939 19909 ft 223 kts 359°
2026-05-06 18:53 -42.12039 -71.15944 20086 ft 235 kts 359°
2026-05-06 18:53 -42.10378 -71.15950 20129 ft 248 kts 359°
2026-05-06 18:54 -42.08613 -71.15958 20149 ft 259 kts 359°
2026-05-06 18:54 -42.06780 -71.15967 20157 ft 268 kts 359°
2026-05-06 18:54 -42.04895 -71.15977 20159 ft 274 kts 359°
2026-05-06 18:54 -42.02975 -71.15988 20162 ft 278 kts 359°
2026-05-06 18:55 -42.01036 -71.16011 20161 ft 278 kts 359°
2026-05-06 18:55 -41.99108 -71.16048 20161 ft 276 kts 359°
2026-05-06 18:55 -41.97189 -71.16075 20160 ft 275 kts 359°
2026-05-06 18:55 -41.95269 -71.16081 20162 ft 274 kts 359°
2026-05-06 18:56 -41.93359 -71.16087 20161 ft 274 kts 359°
2026-05-06 18:56 -41.91456 -71.16092 20161 ft 273 kts 359°
2026-05-06 18:56 -41.89556 -71.16099 20162 ft 273 kts 359°
2026-05-06 18:56 -41.87659 -71.16105 20162 ft 273 kts 359°
2026-05-06 18:57 -41.85760 -71.16110 20162 ft 272 kts 359°
2026-05-06 18:57 -41.83872 -71.16115 20162 ft 271 kts 359°
2026-05-06 18:57 -41.81980 -71.16122 20163 ft 271 kts 359°
2026-05-06 18:57 -41.80118 -71.16128 20164 ft 271 kts 359°
2026-05-06 18:58 -41.78231 -71.16134 20162 ft 271 kts 359°
2026-05-06 18:58 -41.76349 -71.16140 20161 ft 270 kts 359°
2026-05-06 18:58 -41.74468 -71.16148 20164 ft 270 kts 359°
2026-05-06 18:58 -41.72821 -71.16155 20163 ft 270 kts 359°
2026-05-06 18:59 -41.71353 -71.16161 20162 ft 270 kts 359°
2026-05-06 18:59 -41.69474 -71.16141 20165 ft 270 kts
2026-05-06 18:59 -41.67589 -71.16126 20164 ft 270 kts 360°
2026-05-06 18:59 -41.65707 -71.16116 20161 ft 270 kts 360°
2026-05-06 19:00 -41.63829 -71.16105 20163 ft 270 kts 360°
2026-05-06 19:00 -41.61951 -71.16093 20162 ft 270 kts 360°
2026-05-06 19:00 -41.60075 -71.16083 20165 ft 270 kts 360°
2026-05-06 19:00 -41.58826 -71.16076 20119 ft 271 kts 360°
2026-05-06 19:01 -41.56252 -71.16061 19735 ft 283 kts 360°
2026-05-06 19:01 -41.54281 -71.16049 19439 ft 290 kts 360°
2026-05-06 19:01 -41.52245 -71.16038 19139 ft 295 kts 360°
2026-05-06 19:01 -41.50181 -71.16026 18838 ft 298 kts 360°
2026-05-06 19:02 -41.48093 -71.16009 18537 ft 301 kts 360°
2026-05-06 19:02 -41.45990 -71.16000 18241 ft 303 kts
2026-05-06 19:02 -41.43875 -71.15986 17943 ft 304 kts 360°
2026-05-06 19:02 -41.41788 -71.15973 17632 ft 295 kts 360°
2026-05-06 19:03 -41.39763 -71.15962 17340 ft 287 kts
2026-05-06 19:03 -41.37789 -71.15952 17035 ft 281 kts 360°
2026-05-06 19:03 -41.35852 -71.15938 16732 ft 276 kts 360°
2026-05-06 19:03 -41.33945 -71.15927 16431 ft 273 kts 360°
2026-05-06 19:04 -41.32058 -71.15916 16127 ft 270 kts 360°
2026-05-06 19:04 -41.30181 -71.15907 15829 ft 268 kts 360°
2026-05-06 19:04 -41.28319 -71.15895 15532 ft 267 kts 360°
2026-05-06 19:04 -41.26465 -71.15886 15228 ft 265 kts 359°
2026-05-06 19:05 -41.24702 -71.16388 14927 ft 261 kts 332°
2026-05-06 19:05 -41.23409 -71.18032 14628 ft 259 kts 300°
2026-05-06 19:05 -41.22628 -71.20168 14327 ft 257 kts 295°
2026-05-06 19:05 -41.21864 -71.22322 14024 ft 258 kts 295°
2026-05-06 19:06 -41.21091 -71.24477 13719 ft 259 kts 295°
2026-05-06 19:06 -41.20311 -71.26634 13422 ft 259 kts 295°
2026-05-06 19:06 -41.19529 -71.28790 13120 ft 260 kts 295°
2026-05-06 19:06 -41.18753 -71.30924 12830 ft 260 kts 295°
2026-05-06 19:07 -41.17965 -71.33082 12528 ft 260 kts 295°
2026-05-06 19:07 -41.17433 -71.34540 12320 ft 259 kts 296°
2026-05-06 19:07 -41.16187 -71.37174 11926 ft 255 kts 320°
2026-05-06 19:07 -41.14570 -71.38075 11621 ft 257 kts 354°
2026-05-06 19:08 -41.12829 -71.37651 11330 ft 257 kts 26°
2026-05-06 19:08 -41.11308 -71.36401 10902 ft 260 kts 36°
2026-05-06 19:08 -41.09931 -71.34829 10426 ft 261 kts 47°
2026-05-06 19:08 -41.09090 -71.32707 9938 ft 264 kts 77°
2026-05-06 19:09 -41.09183 -71.30294 9475 ft 264 kts 106°
2026-05-06 19:09 -41.09545 -71.27944 8987 ft 262 kts 88°
2026-05-06 19:09 -41.08981 -71.25671 8513 ft 262 kts 59°
2026-05-06 19:09 -41.08050 -71.23615 8078 ft 258 kts 66°
2026-05-06 19:10 -41.07403 -71.21440 7676 ft 252 kts 58°
2026-05-06 19:10 -41.06099 -71.19916 7277 ft 255 kts 24°
2026-05-06 19:10 -41.04365 -71.19584 6885 ft 256 kts 351°
2026-05-06 19:10 -41.02762 -71.20545 6482 ft 256 kts 319°
2026-05-06 19:11 -41.01802 -71.22493 6079 ft 256 kts 287°
2026-05-06 19:11 -41.01784 -71.24816 5677 ft 255 kts 254°
2026-05-06 19:11 -41.02408 -71.26965 5403 ft 242 kts 253°
2026-05-06 19:11 -41.02354 -71.29142 5181 ft 240 kts 290°
2026-05-06 19:12 -41.01344 -71.30841 5019 ft 238 kts 326°
2026-05-06 19:12 -40.99894 -71.31775 4884 ft 226 kts 328°
2026-05-06 19:12 -40.98894 -71.33364 4594 ft 233 kts 290°
2026-05-06 19:12 -40.98919 -71.35267 5089 ft 191 kts 255°
2026-05-06 19:13 -40.99310 -71.36874 5500 ft 175 kts 250°
2026-05-06 19:13 -40.99786 -71.38372 5606 ft 174 kts 243°
2026-05-06 19:13 -41.00269 -71.39528 6511 ft 128 kts 239°
2026-05-06 19:13 -41.00800 -71.40634 6383 ft 161 kts 236°
2026-05-06 19:14 -41.01520 -71.42043 5460 ft 220 kts 236°
2026-05-06 19:14 -41.02665 -71.43105 5585 ft 206 kts 198°
2026-05-06 19:14 -41.04153 -71.43071 5614 ft 196 kts 168°
2026-05-06 19:14 -41.05264 -71.42598 6600 ft 152 kts 155°
2026-05-06 19:15 -41.06266 -71.41664 6092 ft 196 kts 136°
2026-05-06 19:15 -41.07178 -71.40369 5915 ft 209 kts 129°
2026-05-06 19:15 -41.08085 -71.38751 5431 ft 227 kts 126°
2026-05-06 19:15 -41.09070 -71.37038 5035 ft 230 kts 128°
2026-05-06 19:16 -41.10026 -71.35355 4479 ft 225 kts 122°
2026-05-06 19:16 -41.10703 -71.33533 4068 ft 214 kts 114°
2026-05-06 19:16 -41.11265 -71.31798 3640 ft 195 kts 113°
2026-05-06 19:16 -41.11764 -71.30225 3383 ft 173 kts 113°
2026-05-06 19:17 -41.12193 -71.28871 3242 ft 139 kts 113°
2026-05-06 19:17 -41.12525 -71.27820 3189 ft 111 kts 113°
2026-05-06 19:17 -41.12792 -71.26974 3160 ft 92 kts 113°
2026-05-06 19:17 -41.13060 -71.26121 3148 ft 113 kts 113°
2026-05-06 19:18 -41.13397 -71.25061 3166 ft 134 kts 113°
2026-05-06 19:18 -41.13688 -71.23967 3508 ft 125 kts 106°
2026-05-06 19:18 -41.13696 -71.22800 3565 ft 132 kts 70°
2026-05-06 19:18 -41.13399 -71.21562 3414 ft 152 kts 81°
2026-05-06 19:19 -41.13511 -71.20135 3286 ft 158 kts 107°
2026-05-06 19:19 -41.13753 -71.19226 3237 ft 157 kts 115°
2026-05-06 19:19 -41.14320 -71.17979 2988 ft 149 kts 115°
2026-05-06 19:19 -41.14830 -71.16578 2789 ft 110 kts 114°
2026-05-06 19:20 -41.15108 -71.15794 2756 ft 59 kts 115°
2026-05-06 19:20 -41.15148 -71.15682 2756 ft 11 kts 115°
2026-05-06 19:20 -41.15132 -71.15607 2756 ft 10 kts
2026-05-06 19:20 -41.15071 -71.15608 2757 ft 10 kts
2026-05-06 19:21 -41.15015 -71.15628 2757 ft 9 kts 314°
2026-05-06 19:21 -41.14969 -71.15652 2756 ft 7 kts
2026-05-06 19:21 -41.14916 -71.15625 2756 ft 9 kts 13°
2026-05-06 19:21 -41.14856 -71.15656 2756 ft 8 kts 319°
2026-05-06 19:22 -41.14833 -71.15694 2759 ft 0 kts 302°